星链-3247 (STARLINK-3247 )

导读

STARLINK-3247是美国SpaceX星链(Starlink)项目下的一颗低轨道通信卫星,于北京时间2021年12月2日发射入轨,属于星链一代V1.0版本卫星。星链项目旨在构建全球卫星互联网星座,为全球尤其偏远地区提供高速低延迟宽带服务,缩小数字鸿沟,同时可服务军事、航空等领域通信需求,该卫星服役后已在轨运行超4年,为星链星座的全球覆盖提供支撑。

Basic Information
目录编号:
49747
目录名称:
STARLINK-3247
国际标识:
2021-115Z
轨道中心:
EARTH
卫星名称:
星链-3247
卫星全名:
星链-3247 (STARLINK-3247 )
卫星状态:
在轨 (已飞行1745 天)
发射日期:
2021-12-02 UTC
国别 :
美国 (US)
星等 :
--
This satellite is enrolled in the Space Conjunction Data Service (SCDS) and the current flight risk assessment level is: No High Risk
Orbit Information
数据来源 国际轨道数据 AOE轨道数据
星历时间 2026-09-11T23:57:48+0800
11小时前
查看轨道信息
2026-09-10T17:00:00+0800
1天前
查看轨道信息
半长轴 6903.321km 6903.523km
偏心率 0.0000971 0.000125
轨道倾角 53.163° 53.163°
近地点辐角 66.781° 73.687°
升交点赤经 32.551° 38.393°
平近点角 293.328° 92.677°
近地点 524.513km 524.523km
远地点 525.855km 526.249km
周期 95.136分钟 95.141分钟
每日圈数 15.136159 15.135496
Detailed Information
固有亮度:
5
最大亮度:
2.5
卫星平台:
Starlink v1.5
覆盖范围:
全球
运营商:
太空探索技术公司
运营商所在国:
美国
制造商(研发单位):
太空探索技术公司
制造商所在国:
美国
使用方式:
暂无
Satellite Introduction
星链(Starlink)计划是由太空探索技术公司(SpaceX)提出的一个巨型低轨卫星互联网星座项目,计划在2019年至2024年间在太空搭建由约1.2万颗卫星组成的“星链”网络,其中1584颗将部署在地球上空550千米处的近地轨道,并从2020年开始工作。该卫星仍在工作。
2D Orbit Map
3D Orbit Map
Orbit Altitude Analysis Chart
Orbit Inclination Analysis Chart
Orbit Comprehensive Analysis Chart
View Comprehensive Chart
Miss Distance Evolution Trend with All Objects
Collision Probability Evolution Trend with All Objects